Terug naar catalogus

COSMOS 1275 DEB

LostPO
NORAD 42232·DEBRIS·🇷🇺 Russia

Gelanceerd Jun 4, 1981 vanaf Plesetsk Cosmodrome

Loading…

Volgende Passages (komende 24 uur)

TLE

VerouderdSource: Space-Track

Epoch: May 7, 2024, 12:57 UTC

1 42232U 81053UY  24128.53974137  .00002355  00000-0  29874-2 0  9993
2 42232  83.0106  57.1745 0187439  58.7494 303.1863 13.56008925503305

Volg COSMOS 1275 DEB in realtime met AllMySat

Download on the App Store